User: anonymous   Login
Location: Baix
(44.7118°N, 4.7648°E)
Time: 12:32:33
(UTC+00:00)
Language:

Cosmos 1975 Rocket - Orbit

View from above orbital plane
View from above orbital plane
View from above satellite
View from above satellite

Ground track
Ground track

The orbit data is extracted from the following two-line orbital elements,

1 19574U 88093B   20293.96250573 +.00000062 +00000-0 +45501-5 0  9995
2 19574 082.5304 083.6178 0022824 053.9426 064.3308 14.83340372709320
Epoch (UTC): 19 October 2020 23:06:00
Eccentricity: 0.0022824
inclination: 82.5304°
perigee height: 603 km
apogee height: 635 km
right ascension of ascending node: 83.6178°
argument of perigee: 53.9426°
revolutions per day: 14.83340372
mean anomaly at epoch: 64.3308°
orbit number at epoch: 70932

The dashed part of the orbit path shows where the satellite is in the earth's shadow,  

DLR